Altus AFB, OK

8:31 PM CDT on October 19, 2019 (GMT -0500)
Altus Air Force Base

Weather History for KLTS - August, 2019

Change the Weather History Date:

Monday, August 26, 2019

  Actual Average Record
Temperature  
Mean Temperature 88 °F -  
Max Temperature 103 °F 92 °F 107 °F (2004)
Min Temperature 72 °F 69 °F 58 °F (2010)
Cooling Degree Days 22    
Growing Degree Days 38 (Base 50)    
Moisture  
Dew Point 68 °F    
Average Humidity 55    
Maximum Humidity 87    
Minimum Humidity 29    
Precipitation  
Precipitation 0.00 in - - ()
Sea Level Pressure  
Sea Level Pressure 29.64 in    
Wind  
Wind Speed 9 mph ()    
Max Wind Speed 14 mph    
Max Gust Speed 21 mph    
Visibility 10.0 miles    
Events      
Averages and records for this station are not official NWS values.
T = Trace of Precipitation, MM = Missing Value Source: Averaged Metar Reports

Daily Weather History Graph

Daily Weather History Graph

Search for Another Location

Airport or City:

Astronomy

Aug. 26, 2019 Rise Set
Actual Time 7:05 AM CDT 8:11 PM CDT
Civil Twilight 6:39 AM CDT 8:37 PM CDT
Nautical Twilight 6:08 AM CDT 9:08 PM CDT
Astronomical Twilight 5:36 AM CDT 9:40 PM CDT
Moon 2:41 AM CDT (8/26) 5:27 PM CDT (8/26)
Length of Visible Light 13h 58m
Length of Day
13h 06m
Waning Crescent, 19% of the Moon is Illuminated
Aug 26
Waning Crescent
Aug 30
New
Sep 5
First Quarter
Sep 13
Full
Sep 21
Last Quarter

Hourly Weather History & Observations

Time (CDT) Temp. Heat Index Dew Point Humidity Pressure Visibility Wind Dir Wind Speed Gust Speed Precip Events Conditions
12:56 AM 79.9 °F - 70.3 °F 73% 29.70 in 10.0 mi SSE 12.7 mph - N/A   Clear
1:56 AM 78.8 °F - 70.2 °F 75% 29.69 in 10.0 mi SE 10.4 mph - N/A   Clear
2:56 AM 77.4 °F - 70.0 °F 78% 29.68 in 10.0 mi SE 11.5 mph - N/A   Clear
3:56 AM 76.6 °F - 68.9 °F 77% 29.66 in 10.0 mi SE 10.4 mph - N/A   Clear
4:56 AM 75.6 °F - 68.2 °F 78% 29.65 in 10.0 mi SSE 9.2 mph - N/A   Clear
5:56 AM 73.9 °F - 68.0 °F 82% 29.64 in 10.0 mi SE 5.8 mph - N/A   Clear
6:56 AM 72.5 °F - 68.4 °F 87% 29.65 in 10.0 mi ESE 5.8 mph - N/A   Clear
7:56 AM 73.9 °F - 69.1 °F 85% 29.65 in 10.0 mi SE 8.1 mph - N/A   Clear
8:56 AM 79.5 °F - 69.6 °F 72% 29.66 in 10.0 mi SSE 9.2 mph - N/A   Clear
9:56 AM 85.3 °F 90.8 °F 71.2 °F 63% 29.66 in 10.0 mi SSE 10.4 mph - N/A   Clear
10:56 AM 90.3 °F 93.9 °F 67.8 °F 47% 29.66 in 10.0 mi SSW 13.8 mph - N/A   Clear
11:56 AM 93.9 °F 98.6 °F 68.0 °F 43% 29.65 in 10.0 mi SSW 12.7 mph - N/A   Partly Cloudy
12:56 PM 96.6 °F 101.5 °F 68.2 °F 39% 29.62 in 10.0 mi South 13.8 mph - N/A   Partly Cloudy
1:56 PM 97.9 °F 104.7 °F 69.4 °F 40% 29.61 in 10.0 mi SSE 12.7 mph - N/A   Partly Cloudy
2:56 PM 100.9 °F 105.3 °F 66.4 °F 32% 29.60 in 10.0 mi SSE 13.8 mph - N/A   Partly Cloudy
3:56 PM 102.7 °F 108.0 °F 67.1 °F 31% 29.58 in 10.0 mi SE 10.4 mph - N/A   Partly Cloudy
4:56 PM 103.8 °F 108.5 °F 66.2 °F 29% 29.56 in 10.0 mi SSE 11.5 mph - N/A   Clear
5:56 PM 103.6 °F 108.9 °F 66.9 °F 30% 29.57 in 10.0 mi SSE 10.4 mph - N/A   Clear
6:56 PM 100.4 °F 107.8 °F 70.2 °F 37% 29.58 in 10.0 mi SE 8.1 mph - N/A   Clear
7:56 PM 94.1 °F 98.4 °F 67.5 °F 42% 29.60 in 10.0 mi ESE 9.2 mph - N/A   Clear
8:56 PM 89.4 °F 91.9 °F 66.4 °F 46% 29.61 in 10.0 mi ESE 8.1 mph - N/A   Clear
9:56 PM 89.6 °F 93.4 °F 68.0 °F 49% 29.70 in 10.0 mi ESE 5.8 mph - N/A   Partly Cloudy
10:48 PM 91.4 °F 94.0 °F 66.2 °F 43% 29.70 in 10.0 mi NE 11.5 mph 20.7 mph N/A   Partly Cloudy
10:56 PM 92.8 °F 95.6 °F 65.7 °F 41% 29.71 in 10.0 mi NNE 11.5 mph - N/A   Partly Cloudy
11:56 PM 89.4 °F 92.7 °F 67.1 °F 48% 29.73 in 10.0 mi NE 12.7 mph - N/A   Mostly Cloudy